| time (UTC) | temp F | wind direction | speed knots | gust knots | rain 1hr in | rain 24hr in | rain mn in | humidity % | barometer mb |
| 20260503213908 | 60 | 263 | 4.3 | 12.2 | 0.00 | 0.31 | 0.11 | 83 | 1011.8 |
| 20260503213415 | 60 | 263 | 4.3 | 11.3 | 0.00 | 0.31 | 0.11 | 83 | 1011.8 |
| 20260503212906 | 59 | 263 | 4.3 | 11.3 | 0.00 | 0.31 | 0.11 | 83 | 1011.7 |
| 20260503212347 | 59 | 263 | 4.3 | 14.8 | 0.00 | 0.31 | 0.11 | 83 | 1011.7 |
| 20260503211838 | 59 | 263 | 4.3 | 14.8 | 0.00 | 0.31 | 0.11 | 83 | 1011.7 |
| 20260503211336 | 59 | 263 | 5.2 | 14.8 | 0.00 | 0.31 | 0.11 | 82 | 1011.7 |
| 20260503210817 | 59 | 263 | 6.1 | 14.8 | 0.00 | 0.31 | 0.11 | 82 | 1011.7 |
| 20260503210315 | 59 | 263 | 5.2 | 11.3 | 0.00 | 0.33 | 0.11 | 82 | 1011.7 |
| 20260503205759 | 60 | 263 | 4.3 | 10.4 | 0.00 | 0.33 | 0.11 | 82 | 1011.3 |
| 20260503205243 | 60 | 263 | 4.3 | 13.0 | 0.00 | 0.33 | 0.11 | 82 | 1011.3 |
| 20260503204727 | 60 | 263 | 5.2 | 13.0 | 0.00 | 0.33 | 0.11 | 81 | 1011.3 |
| 20260503204227 | 60 | 263 | 5.2 | 13.0 | 0.00 | 0.33 | 0.11 | 81 | 1011.2 |
| 20260503203722 | 60 | 263 | 5.2 | 13.0 | 0.00 | 0.33 | 0.11 | 81 | 1011.2 |
| 20260503203202 | 60 | 263 | 5.2 | 11.3 | 0.00 | 0.33 | 0.11 | 82 | 1011.2 |
| 20260503202658 | 60 | 263 | 5.2 | 11.3 | 0.00 | 0.33 | 0.11 | 82 | 1011.1 |
| 20260503202147 | 60 | 263 | 4.3 | 15.6 | 0.00 | 0.33 | 0.11 | 82 | 1011.1 |
| 20260503201018 | 60 | 263 | 5.2 | 15.6 | 0.00 | 0.33 | 0.11 | 83 | 1010.9 |
| 20260503200510 | 60 | 263 | 4.3 | 14.8 | 0.00 | 0.33 | 0.11 | 83 | 1010.9 |
| 20260503200020 | 60 | 263 | 5.2 | 13.0 | 0.00 | 0.33 | 0.11 | 83 | 1010.9 |
| 20260503195521 | 59 | 263 | 5.2 | 13.0 | 0.00 | 0.33 | 0.11 | 83 | 1010.9 |
| 20260503195024 | 59 | 263 | 4.3 | 12.2 | 0.00 | 0.33 | 0.11 | 83 | 1010.9 |
| 20260503194505 | 59 | 263 | 4.3 | 12.2 | 0.00 | 0.33 | 0.11 | 83 | 1010.9 |
| 20260503194001 | 59 | 263 | 4.3 | 17.4 | 0.00 | 0.33 | 0.11 | 83 | 1010.8 |
| 20260503193446 | 59 | 263 | 4.3 | 17.4 | 0.00 | 0.33 | 0.11 | 83 | 1010.8 |
| 20260503192927 | 59 | 263 | 6.1 | 17.4 | 0.00 | 0.33 | 0.11 | 82 | 1010.8 |
| 20260503192412 | 60 | 263 | 6.1 | 13.0 | 0.00 | 0.33 | 0.11 | 82 | 1010.7 |
| 20260503191903 | 59 | 263 | 4.3 | 13.0 | 0.00 | 0.33 | 0.11 | 82 | 1010.7 |
| 20260503191344 | 59 | 263 | 3.5 | 10.4 | 0.00 | 0.33 | 0.11 | 82 | 1010.9 |
| 20260503190211 | 59 | 263 | 5.2 | 16.5 | 0.00 | 0.33 | 0.11 | 82 | 1010.9 |
| 20260503185713 | 59 | 263 | 5.2 | 16.5 | 0.00 | 0.33 | 0.11 | 82 | 1010.7 |
| 20260503185157 | 59 | 263 | 5.2 | 16.5 | 0.00 | 0.33 | 0.11 | 82 | 1010.7 |
| 20260503184655 | 59 | 263 | 4.3 | 16.5 | 0.00 | 0.33 | 0.11 | 82 | 1010.7 |
| 20260503184156 | 59 | 263 | 5.2 | 13.9 | 0.00 | 0.33 | 0.11 | 82 | 1010.7 |
| 20260503183646 | 59 | 263 | 5.2 | 13.9 | 0.00 | 0.33 | 0.11 | 82 | 1010.7 |
| 20260503182526 | 59 | 263 | 3.5 | 13.9 | 0.00 | 0.33 | 0.11 | 83 | 1010.7 |
| 20260503182028 | 59 | 263 | 4.3 | 13.9 | 0.00 | 0.33 | 0.11 | 83 | 1010.7 |
| 20260503181518 | 59 | 263 | 4.3 | 11.3 | 0.00 | 0.33 | 0.11 | 83 | 1010.7 |
| 20260503181008 | 59 | 263 | 4.3 | 10.4 | 0.00 | 0.33 | 0.11 | 83 | 1010.7 |
| 20260503180505 | 59 | 263 | 5.2 | 12.2 | 0.00 | 0.33 | 0.11 | 84 | 1010.7 |
| 20260503175959 | 59 | 263 | 5.2 | 12.2 | 0.00 | 0.33 | 0.11 | 84 | 1010.7 |
| 20260503175446 | 59 | 263 | 5.2 | 16.5 | 0.00 | 0.33 | 0.11 | 85 | 1010.9 |
| 20260503174952 | 59 | 263 | 5.2 | 16.5 | 0.00 | 0.33 | 0.11 | 85 | 1010.9 |
| 20260503174437 | 59 | 263 | 5.2 | 16.5 | 0.00 | 0.33 | 0.11 | 85 | 1010.9 |
| 20260503170744 | 58 | 263 | 3.5 | 10.4 | 0.00 | 0.33 | 0.11 | 87 | 1011.2 |
| 20260503170238 | 58 | 263 | 2.6 | 16.5 | 0.00 | 0.34 | 0.11 | 87 | 1011.2 |
| 20260503150601 | 57 | 263 | 2.6 | 17.4 | 0.06 | 0.39 | 0.10 | 86 | 1011.6 |
| 20260503131126 | 57 | 263 | 3.5 | 14.8 | 0.11 | 0.29 | 0.29 | 78 | 1012.2 |
| 20260503130612 | 58 | 263 | 4.3 | 14.8 | 0.24 | 0.28 | 0.28 | 77 | 1012.2 |
| 20260503110820 | 58 | 263 | 2.6 | 12.2 | 0.00 | 0.25 | 0.25 | 85 | 1011.7 |
| 20260503110307 | 58 | 263 | 3.5 | 12.2 | 0.03 | 0.25 | 0.25 | 85 | 1011.7 |
| 20260503090126 | 58 | 263 | 0.0 | 3.5 | 0.00 | 0.22 | 0.22 | 85 | 1011.2 |
| 20260503081252 | 62 | 263 | 3.5 | 13.0 | 0.00 | 0.18 | 0.17 | 72 | 1010.2 |
| 20260503080741 | 62 | 263 | 2.6 | 13.0 | 0.00 | 0.18 | 0.17 | 71 | 1010.2 |
| 20260503080227 | 62 | 263 | 2.6 | 13.0 | 0.00 | 0.18 | 0.17 | 70 | 1010.2 |
| 20260503072640 | 61 | 263 | 1.7 | 13.0 | 0.00 | 0.18 | 0.17 | 76 | 1010.5 |
| 20260503072148 | 61 | 263 | 2.6 | 13.0 | 0.00 | 0.18 | 0.17 | 76 | 1010.5 |
| 20260503071645 | 62 | 263 | 2.6 | 13.0 | 0.00 | 0.18 | 0.17 | 76 | 1010.5 |
| 20260503070525 | 62 | 263 | 3.5 | 12.2 | 0.00 | 0.18 | 0.17 | 77 | 1010.2 |
| 20260503060330 | 60 | 263 | 2.6 | 12.2 | 0.00 | 0.20 | 0.17 | 81 | 1010.6 |
| 20260503054804 | 60 | 263 | 6.1 | 21.7 | 0.03 | 0.20 | 0.16 | 78 | 1010.6 |
| 20260503053105 | 65 | 263 | 5.2 | 19.1 | 0.00 | 0.18 | 0.11 | 61 | 1010.1 |
| 20260503052600 | 65 | 263 | 4.3 | 19.1 | 0.00 | 0.18 | 0.11 | 60 | 1010.1 |
| 20260503052059 | 65 | 263 | 4.3 | 17.4 | 0.00 | 0.18 | 0.11 | 59 | 1010.1 |
| 20260503051602 | 66 | 263 | 5.2 | 17.4 | 0.00 | 0.18 | 0.11 | 59 | 1010.1 |
| 20260503051107 | 66 | 263 | 6.1 | 17.4 | 0.00 | 0.18 | 0.11 | 57 | 1009.8 |
| 20260503050549 | 67 | 263 | 4.3 | 17.4 | 0.00 | 0.18 | 0.11 | 56 | 1009.8 |
| 20260503045437 | 66 | 263 | 2.6 | 8.7 | 0.00 | 0.20 | 0.11 | 59 | 1010.0 |
| 20260503044932 | 66 | 263 | 2.6 | 14.8 | 0.00 | 0.22 | 0.11 | 59 | 1010.0 |
| 20260503044425 | 66 | 263 | 3.5 | 14.8 | 0.00 | 0.22 | 0.11 | 58 | 1010.0 |
| 20260503043918 | 67 | 263 | 3.5 | 14.8 | 0.00 | 0.25 | 0.11 | 57 | 1009.9 |
| 20260503042733 | 66 | 263 | 3.5 | 16.5 | 0.00 | 0.26 | 0.11 | 58 | 1010.1 |
| 20260503042213 | 65 | 263 | 4.3 | 16.5 | 0.00 | 0.26 | 0.11 | 61 | 1010.1 |
| 20260503041701 | 65 | 263 | 5.2 | 16.5 | 0.00 | 0.28 | 0.11 | 61 | 1010.1 |
| 20260503041146 | 65 | 263 | 4.3 | 16.5 | 0.00 | 0.28 | 0.11 | 60 | 1010.1 |
| 20260503040634 | 65 | 263 | 3.5 | 15.6 | 0.00 | 0.28 | 0.11 | 60 | 1010.1 |
| 20260503040114 | 65 | 263 | 3.5 | 14.8 | 0.00 | 0.28 | 0.11 | 60 | 1010.1 |
| 20260503035622 | 65 | 263 | 5.2 | 17.4 | 0.00 | 0.28 | 0.11 | 61 | 1010.2 |
| 20260503035130 | 65 | 263 | 6.1 | 17.4 | 0.00 | 0.29 | 0.11 | 60 | 1010.2 |
| 20260503033955 | 65 | 263 | 4.3 | 18.2 | 0.00 | 0.29 | 0.11 | 63 | 1010.3 |
| 20260503033500 | 65 | 263 | 3.5 | 18.2 | 0.00 | 0.29 | 0.11 | 64 | 1010.3 |
| 20260503033003 | 64 | 263 | 3.5 | 18.2 | 0.00 | 0.29 | 0.11 | 65 | 1010.3 |
| 20260503032456 | 64 | 263 | 4.3 | 14.8 | 0.00 | 0.29 | 0.11 | 69 | 1010.5 |
| 20260503031939 | 63 | 263 | 4.3 | 18.2 | 0.00 | 0.30 | 0.11 | 70 | 1010.5 |
| 20260503031439 | 62 | 263 | 4.3 | 18.2 | 0.00 | 0.30 | 0.11 | 73 | 1010.5 |
| 20260503030920 | 61 | 263 | 5.2 | 18.2 | 0.00 | 0.32 | 0.11 | 73 | 1010.9 |
| 20260503025747 | 62 | 263 | 3.5 | 13.9 | 0.00 | 0.33 | 0.11 | 72 | 1010.9 |
| 20260503025229 | 62 | 263 | 4.3 | 18.2 | 0.00 | 0.33 | 0.11 | 70 | 1010.9 |
| 20260503024724 | 64 | 263 | 5.2 | 18.2 | 0.00 | 0.32 | 0.11 | 64 | 1010.9 |
| 20260503024204 | 64 | 263 | 5.2 | 18.2 | 0.00 | 0.32 | 0.10 | 60 | 1010.6 |
| 20260503023650 | 65 | 263 | 3.5 | 18.2 | 0.00 | 0.32 | 0.10 | 60 | 1010.6 |
| 20260503023135 | 65 | 263 | 2.6 | 12.2 | 0.00 | 0.32 | 0.10 | 60 | 1010.6 |
| 20260503022640 | 64 | 263 | 3.5 | 12.2 | 0.00 | 0.32 | 0.10 | 61 | 1011.0 |
| 20260503022128 | 64 | 263 | 4.3 | 13.9 | 0.00 | 0.32 | 0.10 | 60 | 1011.0 |
| 20260503021625 | 64 | 263 | 3.5 | 13.9 | 0.00 | 0.32 | 0.10 | 62 | 1011.0 |
| 20260503015904 | 64 | 263 | 5.2 | 18.2 | 0.00 | 0.32 | 0.10 | 65 | 1010.8 |
| 20260503015403 | 63 | 263 | 2.6 | 18.2 | 0.00 | 0.32 | 0.10 | 66 | 1010.8 |
| 20260503014910 | 63 | 263 | 2.6 | 14.8 | 0.00 | 0.32 | 0.10 | 68 | 1010.8 |
| 20260503014358 | 62 | 263 | 2.6 | 14.8 | 0.00 | 0.32 | 0.10 | 69 | 1011.0 |
| 20260503013905 | 62 | 263 | 2.6 | 14.8 | 0.00 | 0.32 | 0.10 | 70 | 1011.0 |
| 20260503013359 | 62 | 263 | 2.6 | 13.0 | 0.00 | 0.32 | 0.10 | 70 | 1011.0 |
| 20260503010928 | 61 | 263 | 3.5 | 11.3 | 0.00 | 0.32 | 0.10 | 71 | 1011.1 |
| 20260503010412 | 60 | 263 | 2.6 | 11.3 | 0.00 | 0.32 | 0.10 | 72 | 1011.1 |
| 20260503005909 | 60 | 263 | 1.7 | 9.6 | 0.00 | 0.32 | 0.10 | 73 | 1011.1 |
| 20260503005405 | 60 | 263 | 2.6 | 11.3 | 0.00 | 0.32 | 0.10 | 73 | 1011.0 |
| 20260503004846 | 61 | 263 | 3.5 | 11.3 | 0.00 | 0.32 | 0.10 | 71 | 1011.0 |
| 20260503004354 | 61 | 263 | 2.6 | 15.6 | 0.00 | 0.32 | 0.10 | 69 | 1011.2 |
| 20260503003846 | 61 | 263 | 3.5 | 15.6 | 0.00 | 0.32 | 0.10 | 68 | 1011.2 |
| 20260503003338 | 61 | 263 | 3.5 | 15.6 | 0.00 | 0.32 | 0.10 | 69 | 1011.2 |
| 20260503002836 | 61 | 263 | 3.5 | 15.6 | 0.00 | 0.32 | 0.10 | 68 | 1011.2 |
| 20260503002340 | 61 | 263 | 2.6 | 16.5 | 0.00 | 0.32 | 0.10 | 68 | 1011.2 |
| 20260503001841 | 62 | 263 | 2.6 | 16.5 | 0.00 | 0.33 | 0.10 | 69 | 1011.2 |
| 20260503001331 | 62 | 263 | 3.5 | 16.5 | 0.00 | 0.33 | 0.10 | 69 | 1011.2 |
| 20260503000834 | 61 | 263 | 3.5 | 16.5 | 0.00 | 0.33 | 0.10 | 71 | 1011.2 |
| 20260503000339 | 61 | 263 | 3.5 | 13.9 | 0.00 | 0.33 | 0.10 | 72 | 1011.2 |
| 20260502235849 | 60 | 263 | 2.6 | 13.9 | 0.00 | 0.33 | 0.10 | 74 | 1011.2 |
| 20260502235336 | 60 | 263 | 3.5 | 13.9 | 0.00 | 0.33 | 0.09 | 77 | 1011.2 |
| 20260502234830 | 59 | 263 | 3.5 | 13.9 | 0.00 | 0.33 | 0.09 | 78 | 1011.2 |
| 20260502234317 | 58 | 263 | 2.6 | 10.4 | 0.00 | 0.33 | 0.09 | 80 | 1011.2 |
| 20260502233802 | 58 | 263 | 3.5 | 10.4 | 0.00 | 0.33 | 0.09 | 82 | 1011.2 |
| 20260502233303 | 58 | 263 | 3.5 | 10.4 | 0.00 | 0.33 | 0.09 | 83 | 1011.2 |
| 20260502232753 | 57 | 263 | 3.5 | 11.3 | 0.00 | 0.33 | 0.09 | 83 | 1011.3 |
| 20260502232249 | 57 | 263 | 2.6 | 11.3 | 0.00 | 0.33 | 0.09 | 85 | 1011.3 |
| 20260502231737 | 56 | 263 | 2.6 | 11.3 | 0.00 | 0.33 | 0.09 | 85 | 1011.3 |
| 20260502231246 | 56 | 263 | 1.7 | 11.3 | 0.00 | 0.33 | 0.09 | 85 | 1011.3 |
| 20260502230740 | 56 | 263 | 1.7 | 8.7 | 0.00 | 0.33 | 0.09 | 86 | 1011.3 |
| 20260502230223 | 56 | 263 | 1.7 | 8.7 | 0.00 | 0.33 | 0.09 | 86 | 1011.3 |
| 20260502225727 | 56 | 263 | 2.6 | 8.7 | 0.00 | 0.33 | 0.09 | 86 | 1011.3 |
| 20260502225220 | 56 | 263 | 1.7 | 8.7 | 0.00 | 0.33 | 0.09 | 87 | 1011.3 |
| 20260502224709 | 55 | 263 | 1.7 | 4.3 | 0.00 | 0.33 | 0.09 | 88 | 1011.3 |
| 20260502224215 | 55 | 263 | 1.7 | 7.8 | 0.00 | 0.33 | 0.09 | 88 | 1011.3 |
| 20260502223657 | 55 | 263 | 0.9 | 7.8 | 0.00 | 0.33 | 0.09 | 88 | 1011.3 |
| 20260502223140 | 55 | 263 | 1.7 | 7.8 | 0.00 | 0.33 | 0.09 | 89 | 1011.3 |
| 20260502222622 | 55 | 263 | 1.7 | 7.8 | 0.00 | 0.33 | 0.09 | 89 | 1011.2 |
| 20260502222125 | 55 | 263 | 1.7 | 7.0 | 0.00 | 0.33 | 0.09 | 89 | 1011.2 |
| 20260502221612 | 55 | 263 | 1.7 | 5.2 | 0.00 | 0.33 | 0.09 | 89 | 1011.2 |
| 20260502221118 | 55 | 263 | 1.7 | 8.7 | 0.00 | 0.33 | 0.09 | 89 | 1011.1 |